Location: Salisbury
(35.6710°N, 80.4740°W)
Time: 19:40:25
(UTC-04:00)

ISS - Visible Passes

Search period start: 27 May 2018 00:00
Search period end: 06 June 2018 00:00
Orbit: 402 x 407 km, 51.6° (Epoch: 28 May)

Date Brightness Start Highest point End Pass type
(mag) Time Alt. Az. Time Alt. Az. Time Alt. Az.
29 May -0.2 00:28:12 10° N 00:28:12 10° N 00:28:12 10° N visible
31 May -0.4 00:19:17 10° NNW 00:19:39 12° NNW 00:19:39 12° NNW visible
31 May -0.9 23:27:36 10° N 23:29:06 14° NNE 23:29:06 14° NNE visible
02 Jun -0.5 00:10:49 10° NW 00:11:12 13° NW 00:11:12 13° NW visible
02 Jun -1.5 23:18:48 10° NNW 23:20:41 23° N 23:20:41 23° N visible
03 Jun -1.5 22:27:00 10° NNW 22:29:11 16° NNE 22:30:12 15° NE visible
04 Jun -0.5 00:02:41 10° WNW 00:02:50 11° WNW 00:02:50 11° WNW visible
04 Jun -1.0 21:35:38 10° N 21:36:36 11° NNE 21:37:34 10° NE visible
04 Jun -2.1 23:10:22 10° NW 23:12:23 34° NNW 23:12:23 34° NNW visible
05 Jun -2.6 22:18:14 10° NNW 22:21:14 32° NE 22:21:58 29° ENE visible
